Time,TemperatureF,DewpointF,PressureIn,WindDirection,WindDirectionDegrees,WindSpeedMPH,WindSpeedGustMPH,Humidity,HourlyPrecipIn,Conditions,Clouds,dailyrainin,SoftwareType,DateUTC
2013-02-05 00:00:00,71.0,54.0,30.07,ESE,110,10.0,13.0,56,-99.99,,,-99.99,,2013-02-05 05:00:00,
2013-02-05 00:21:00,71.0,54.0,30.07,ESE,110,10.0,13.0,56,-99.99,,,-99.99,,2013-02-05 05:21:00,
2013-02-05 00:31:00,71.0,54.0,30.07,ESE,110,10.0,13.0,56,-99.99,,,-99.99,,2013-02-05 05:31:00,
2013-02-05 00:41:00,71.0,54.0,30.07,ESE,110,10.0,13.0,56,-99.99,,,-99.99,,2013-02-05 05:41:00,
2013-02-05 00:52:00,71.0,54.0,30.07,ESE,110,10.0,13.0,56,-99.99,,,-99.99,,2013-02-05 05:52:00,
2013-02-05 01:00:00,71.0,55.0,30.06,ESE,120,8.0,9.0,57,-99.99,,,-99.99,,2013-02-05 06:00:00,
2013-02-05 01:21:00,71.0,55.0,30.06,ESE,120,8.0,9.0,57,-99.99,,,-99.99,,2013-02-05 06:21:00,
2013-02-05 01:31:00,71.0,55.0,30.06,ESE,120,8.0,9.0,57,-99.99,,,-99.99,,2013-02-05 06:31:00,
2013-02-05 01:41:00,71.0,55.0,30.06,ESE,120,8.0,9.0,57,-99.99,,,-99.99,,2013-02-05 06:41:00,
2013-02-05 01:51:00,71.0,55.0,30.06,ESE,120,8.0,9.0,57,-99.99,,,-99.99,,2013-02-05 06:51:00,
2013-02-05 02:00:00,71.0,55.0,30.05,ESE,110,9.0,11.0,57,-99.99,,,-99.99,,2013-02-05 07:00:00,
2013-02-05 02:22:00,71.0,55.0,30.05,ESE,110,9.0,11.0,57,-99.99,,,-99.99,,2013-02-05 07:22:00,
2013-02-05 02:31:00,71.0,55.0,30.05,ESE,110,9.0,11.0,57,-99.99,,,-99.99,,2013-02-05 07:31:00,
2013-02-05 02:41:00,71.0,55.0,30.05,ESE,110,9.0,11.0,57,-99.99,,,-99.99,,2013-02-05 07:41:00,
2013-02-05 02:51:00,71.0,55.0,30.05,ESE,110,9.0,11.0,57,-99.99,,,-99.99,,2013-02-05 07:51:00,
2013-02-05 03:00:00,71.0,56.0,30.04,SE,130,7.0,8.0,58,-99.99,,,-99.99,,2013-02-05 08:00:00,
2013-02-05 03:21:00,71.0,56.0,30.04,SE,130,7.0,8.0,58,-99.99,,,-99.99,,2013-02-05 08:21:00,
2013-02-05 03:31:00,71.0,56.0,30.04,SE,130,7.0,8.0,58,-99.99,,,-99.99,,2013-02-05 08:31:00,
2013-02-05 03:41:00,71.0,56.0,30.04,SE,130,7.0,8.0,58,-99.99,,,-99.99,,2013-02-05 08:41:00,
2013-02-05 03:52:00,71.0,56.0,30.04,SE,130,7.0,8.0,58,-99.99,,,-99.99,,2013-02-05 08:52:00,
2013-02-05 04:00:00,71.0,55.0,30.02,East,80,11.0,13.0,56,-99.99,,,-99.99,,2013-02-05 09:00:00,
2013-02-05 04:21:00,71.0,55.0,30.02,East,80,11.0,13.0,56,-99.99,,,-99.99,,2013-02-05 09:21:00,
2013-02-05 04:31:00,71.0,55.0,30.02,East,80,11.0,13.0,56,-99.99,,,-99.99,,2013-02-05 09:31:00,
2013-02-05 04:41:00,71.0,55.0,30.02,East,80,11.0,13.0,56,-99.99,,,-99.99,,2013-02-05 09:41:00,
2013-02-05 04:51:00,71.0,55.0,30.02,East,80,11.0,13.0,56,-99.99,,,-99.99,,2013-02-05 09:51:00,
2013-02-05 05:00:00,71.0,54.0,30.01,East,100,13.0,14.0,55,-99.99,,,-99.99,,2013-02-05 10:00:00,
2013-02-05 05:21:00,71.0,54.0,30.01,East,100,13.0,14.0,55,-99.99,,,-99.99,,2013-02-05 10:21:00,
2013-02-05 05:31:00,71.0,54.0,30.01,East,100,13.0,14.0,55,-99.99,,,-99.99,,2013-02-05 10:31:00,
2013-02-05 05:42:00,71.0,54.0,30.01,East,100,13.0,14.0,55,-99.99,,,-99.99,,2013-02-05 10:42:00,
2013-02-05 05:51:00,71.0,54.0,30.01,East,100,13.0,14.0,55,-99.99,,,-99.99,,2013-02-05 10:51:00,
2013-02-05 06:00:00,72.0,60.0,30.03,East,80,9.0,11.0,66,-99.99,,,-99.99,,2013-02-05 11:00:00,
2013-02-05 06:21:00,72.0,60.0,30.03,East,80,9.0,11.0,66,-99.99,,,-99.99,,2013-02-05 11:21:00,
2013-02-05 06:31:00,72.0,60.0,30.03,East,80,9.0,11.0,66,-99.99,,,-99.99,,2013-02-05 11:31:00,
2013-02-05 06:41:00,72.0,60.0,30.03,East,80,9.0,11.0,66,-99.99,,,-99.99,,2013-02-05 11:41:00,
2013-02-05 06:52:00,72.0,60.0,30.03,East,80,9.0,11.0,66,-99.99,,,-99.99,,2013-02-05 11:52:00,
2013-02-05 07:00:00,72.0,58.0,30.04,ESE,110,15.0,16.0,61,-99.99,,,-99.99,,2013-02-05 12:00:00,
2013-02-05 07:21:00,72.0,58.0,30.04,ESE,110,15.0,16.0,61,-99.99,,,-99.99,,2013-02-05 12:21:00,
2013-02-05 07:31:00,72.0,58.0,30.04,ESE,110,15.0,16.0,61,-99.99,,,-99.99,,2013-02-05 12:31:00,
2013-02-05 07:41:00,72.0,58.0,30.04,ESE,110,15.0,16.0,61,-99.99,,,-99.99,,2013-02-05 12:41:00,
2013-02-05 07:51:00,72.0,58.0,30.04,ESE,110,15.0,16.0,61,-99.99,,,-99.99,,2013-02-05 12:51:00,
2013-02-05 08:00:00,72.0,56.0,30.05,East,100,13.0,14.0,57,-99.99,,,-99.99,,2013-02-05 13:00:00,
2013-02-05 08:21:00,72.0,56.0,30.05,East,100,13.0,14.0,57,-99.99,,,-99.99,,2013-02-05 13:21:00,
2013-02-05 08:31:00,72.0,56.0,30.05,East,100,13.0,14.0,57,-99.99,,,-99.99,,2013-02-05 13:31:00,
2013-02-05 08:41:00,72.0,56.0,30.05,East,100,13.0,14.0,57,-99.99,,,-99.99,,2013-02-05 13:41:00,
2013-02-05 08:51:00,72.0,56.0,30.05,East,100,13.0,14.0,57,-99.99,,,-99.99,,2013-02-05 13:51:00,
2013-02-05 09:00:00,72.0,58.0,30.06,East,100,13.0,13.0,60,-99.99,,,-99.99,,2013-02-05 14:00:00,
2013-02-05 09:21:00,72.0,58.0,30.06,East,100,13.0,13.0,60,-99.99,,,-99.99,,2013-02-05 14:21:00,
2013-02-05 09:31:00,72.0,58.0,30.06,East,100,13.0,13.0,60,-99.99,,,-99.99,,2013-02-05 14:31:00,
2013-02-05 09:41:00,72.0,58.0,30.06,East,100,13.0,13.0,60,-99.99,,,-99.99,,2013-02-05 14:41:00,
2013-02-05 09:52:00,72.0,58.0,30.06,East,100,13.0,13.0,60,-99.99,,,-99.99,,2013-02-05 14:52:00,
2013-02-05 10:00:00,73.0,59.0,30.08,ESE,110,13.0,15.0,60,-99.99,,,-99.99,,2013-02-05 15:00:00,
2013-02-05 10:21:00,73.0,59.0,30.08,ESE,110,13.0,15.0,60,-99.99,,,-99.99,,2013-02-05 15:21:00,
2013-02-05 10:32:00,73.0,59.0,30.08,ESE,110,13.0,15.0,60,-99.99,,,-99.99,,2013-02-05 15:32:00,
2013-02-05 10:41:00,73.0,59.0,30.08,ESE,110,13.0,15.0,60,-99.99,,,-99.99,,2013-02-05 15:41:00,
2013-02-05 10:51:00,73.0,59.0,30.08,ESE,110,13.0,15.0,60,-99.99,,,-99.99,,2013-02-05 15:51:00,
2013-02-05 11:00:00,74.0,61.0,30.08,East,100,11.0,14.0,63,-99.99,,,-99.99,,2013-02-05 16:00:00,
2013-02-05 11:21:00,74.0,61.0,30.08,East,100,11.0,14.0,63,-99.99,,,-99.99,,2013-02-05 16:21:00,
2013-02-05 11:32:00,74.0,61.0,30.08,East,100,11.0,14.0,63,-99.99,,,-99.99,,2013-02-05 16:32:00,
2013-02-05 11:41:00,74.0,61.0,30.08,East,100,11.0,14.0,63,-99.99,,,-99.99,,2013-02-05 16:41:00,
2013-02-05 11:51:00,74.0,61.0,30.08,East,100,11.0,14.0,63,-99.99,,,-99.99,,2013-02-05 16:51:00,
2013-02-05 12:00:00,74.0,63.0,30.08,ESE,110,13.0,14.0,67,-99.99,,,-99.99,,2013-02-05 17:00:00,
2013-02-05 12:21:00,74.0,63.0,30.08,ESE,110,13.0,14.0,67,-99.99,,,-99.99,,2013-02-05 17:21:00,
2013-02-05 12:32:00,74.0,63.0,30.08,ESE,110,13.0,14.0,67,-99.99,,,-99.99,,2013-02-05 17:32:00,
2013-02-05 12:41:00,74.0,63.0,30.08,ESE,110,13.0,14.0,67,-99.99,,,-99.99,,2013-02-05 17:41:00,
2013-02-05 12:52:00,74.0,63.0,30.08,ESE,110,13.0,14.0,67,-99.99,,,-99.99,,2013-02-05 17:52:00,
2013-02-05 13:00:00,74.0,64.0,30.06,East,100,11.0,13.0,69,-99.99,,,-99.99,,2013-02-05 18:00:00,
2013-02-05 13:21:00,74.0,64.0,30.06,East,100,11.0,13.0,69,-99.99,,,-99.99,,2013-02-05 18:21:00,
2013-02-05 13:31:00,74.0,64.0,30.06,East,100,11.0,13.0,69,-99.99,,,-99.99,,2013-02-05 18:31:00,
2013-02-05 13:42:00,74.0,64.0,30.06,East,100,11.0,13.0,69,-99.99,,,-99.99,,2013-02-05 18:42:00,
2013-02-05 13:51:00,74.0,64.0,30.06,East,100,11.0,13.0,69,-99.99,,,-99.99,,2013-02-05 18:51:00,
2013-02-05 14:00:00,74.0,63.0,30.03,East,90,10.0,10.0,68,-99.99,,,-99.99,,2013-02-05 19:00:00,
2013-02-05 14:21:00,74.0,63.0,30.03,East,90,10.0,10.0,68,-99.99,,,-99.99,,2013-02-05 19:21:00,
2013-02-05 14:31:00,74.0,63.0,30.03,East,90,10.0,10.0,68,-99.99,,,-99.99,,2013-02-05 19:31:00,
2013-02-05 14:42:00,74.0,63.0,30.03,East,90,10.0,10.0,68,-99.99,,,-99.99,,2013-02-05 19:42:00,
2013-02-05 14:51:00,74.0,63.0,30.03,East,90,10.0,10.0,68,-99.99,,,-99.99,,2013-02-05 19:51:00,
2013-02-05 15:00:00,75.0,64.0,30.03,East,90,9.0,10.0,69,-99.99,,,-99.99,,2013-02-05 20:00:00,
2013-02-05 15:21:00,75.0,64.0,30.03,East,90,9.0,10.0,69,-99.99,,,-99.99,,2013-02-05 20:21:00,
2013-02-05 15:31:00,75.0,64.0,30.03,East,90,9.0,10.0,69,-99.99,,,-99.99,,2013-02-05 20:31:00,
2013-02-05 15:41:00,75.0,64.0,30.03,East,90,9.0,10.0,69,-99.99,,,-99.99,,2013-02-05 20:41:00,
2013-02-05 15:52:00,75.0,64.0,30.03,East,90,9.0,10.0,69,-99.99,,,-99.99,,2013-02-05 20:52:00,
2013-02-05 16:00:00,76.0,65.0,30.02,ESE,110,10.0,11.0,68,-99.99,,,-99.99,,2013-02-05 21:00:00,
2013-02-05 16:21:00,76.0,65.0,30.02,ESE,110,10.0,11.0,68,-99.99,,,-99.99,,2013-02-05 21:21:00,
2013-02-05 16:31:00,76.0,65.0,30.02,ESE,110,10.0,11.0,68,-99.99,,,-99.99,,2013-02-05 21:31:00,
2013-02-05 16:41:00,76.0,65.0,30.02,ESE,110,10.0,11.0,68,-99.99,,,-99.99,,2013-02-05 21:41:00,
2013-02-05 16:51:00,76.0,65.0,30.02,ESE,110,10.0,11.0,68,-99.99,,,-99.99,,2013-02-05 21:51:00,
2013-02-05 17:00:00,75.0,65.0,30.02,ESE,120,9.0,10.0,70,-99.99,,,-99.99,,2013-02-05 22:00:00,
2013-02-05 17:21:00,75.0,65.0,30.02,ESE,120,9.0,10.0,70,-99.99,,,-99.99,,2013-02-05 22:21:00,
2013-02-05 17:31:00,75.0,65.0,30.02,ESE,120,9.0,10.0,70,-99.99,,,-99.99,,2013-02-05 22:31:00,
2013-02-05 17:41:00,75.0,65.0,30.02,ESE,120,9.0,10.0,70,-99.99,,,-99.99,,2013-02-05 22:41:00,
2013-02-05 17:51:00,75.0,65.0,30.02,ESE,120,9.0,10.0,70,-99.99,,,-99.99,,2013-02-05 22:51:00,
2013-02-05 18:00:00,74.0,63.0,30.03,ESE,110,7.0,8.0,69,-99.99,,,-99.99,,2013-02-05 23:00:00,
2013-02-05 18:21:00,74.0,63.0,30.03,ESE,110,7.0,8.0,69,-99.99,,,-99.99,,2013-02-05 23:21:00,
2013-02-05 18:31:00,74.0,63.0,30.03,ESE,110,7.0,8.0,69,-99.99,,,-99.99,,2013-02-05 23:31:00,
2013-02-05 18:41:00,74.0,63.0,30.03,ESE,110,7.0,8.0,69,-99.99,,,-99.99,,2013-02-05 23:41:00,
2013-02-05 18:52:00,74.0,63.0,30.03,ESE,110,7.0,8.0,69,-99.99,,,-99.99,,2013-02-05 23:52:00,
2013-02-05 19:00:00,74.0,65.0,30.03,ESE,120,10.0,11.0,72,-99.99,,,-99.99,,2013-02-06 00:00:00,
2013-02-05 19:21:00,74.0,65.0,30.03,ESE,120,10.0,11.0,72,-99.99,,,-99.99,,2013-02-06 00:21:00,
2013-02-05 19:31:00,74.0,65.0,30.03,ESE,120,10.0,11.0,72,-99.99,,,-99.99,,2013-02-06 00:31:00,
2013-02-05 19:41:00,74.0,65.0,30.03,ESE,120,10.0,11.0,72,-99.99,,,-99.99,,2013-02-06 00:41:00,
2013-02-05 19:51:00,74.0,65.0,30.03,ESE,120,10.0,11.0,72,-99.99,,,-99.99,,2013-02-06 00:51:00,
2013-02-05 20:00:00,74.0,65.0,30.04,ESE,120,9.0,10.0,73,-99.99,,,-99.99,,2013-02-06 01:00:00,
2013-02-05 20:21:00,74.0,65.0,30.04,ESE,120,9.0,10.0,73,-99.99,,,-99.99,,2013-02-06 01:21:00,
2013-02-05 20:31:00,74.0,65.0,30.04,ESE,120,9.0,10.0,73,-99.99,,,-99.99,,2013-02-06 01:31:00,
2013-02-05 20:41:00,74.0,65.0,30.04,ESE,120,9.0,10.0,73,-99.99,,,-99.99,,2013-02-06 01:41:00,
2013-02-05 20:52:00,74.0,65.0,30.04,ESE,120,9.0,10.0,73,-99.99,,,-99.99,,2013-02-06 01:52:00,
2013-02-05 21:00:00,74.0,65.0,30.04,ESE,110,10.0,11.0,73,-99.99,,,-99.99,,2013-02-06 02:00:00,
2013-02-05 21:21:00,74.0,65.0,30.04,ESE,110,10.0,11.0,73,-99.99,,,-99.99,,2013-02-06 02:21:00,
2013-02-05 21:31:00,74.0,65.0,30.04,ESE,110,10.0,11.0,73,-99.99,,,-99.99,,2013-02-06 02:31:00,
2013-02-05 21:41:00,74.0,65.0,30.04,ESE,110,10.0,11.0,73,-99.99,,,-99.99,,2013-02-06 02:41:00,
2013-02-05 21:52:00,74.0,65.0,30.04,ESE,110,10.0,11.0,73,-99.99,,,-99.99,,2013-02-06 02:52:00,
2013-02-05 22:00:00,74.0,66.0,30.05,SE,130,11.0,13.0,77,-99.99,,,-99.99,,2013-02-06 03:00:00,
2013-02-05 22:21:00,74.0,66.0,30.05,SE,130,11.0,13.0,77,-99.99,,,-99.99,,2013-02-06 03:21:00,
2013-02-05 22:31:00,74.0,66.0,30.05,SE,130,11.0,13.0,77,-99.99,,,-99.99,,2013-02-06 03:31:00,
2013-02-05 22:41:00,74.0,66.0,30.05,SE,130,11.0,13.0,77,-99.99,,,-99.99,,2013-02-06 03:41:00,
2013-02-05 22:52:00,74.0,66.0,30.05,SE,130,11.0,13.0,77,-99.99,,,-99.99,,2013-02-06 03:52:00,
2013-02-05 23:00:00,74.0,66.0,30.06,SE,130,9.0,10.0,76,-99.99,,,-99.99,,2013-02-06 04:00:00,
2013-02-05 23:21:00,74.0,66.0,30.06,SE,130,9.0,10.0,76,-99.99,,,-99.99,,2013-02-06 04:21:00,
2013-02-05 23:31:00,74.0,66.0,30.06,SE,130,9.0,10.0,76,-99.99,,,-99.99,,2013-02-06 04:31:00,
2013-02-05 23:41:00,74.0,66.0,30.06,SE,130,9.0,10.0,76,-99.99,,,-99.99,,2013-02-06 04:41:00,
2013-02-05 23:51:00,74.0,66.0,30.06,SE,130,9.0,10.0,76,-99.99,,,-99.99,,2013-02-06 04:51:00,